Regional Weather Roundup
Issued by NWS

Home | Current Version | Previous Version | Text Only | Print | Product List | Glossary Off
Versions: 1 2 3 4 5 6 7 8 9 10 11 12 13 14 15 16 17 18 19 20 21 22 23 24 25 26 27 28 29 30 31 32 33 34 35 36 37 38 39 40 41 42 43 44 45 46 47 48 49 50

512
ASUS45 KCYS 180810
RWRWY

WYOMING REGIONAL WEATHER ROUNDUP
NATIONAL WEATHER SERVICE CHEYENNE WY
100 AM MST MON DEC 18 2017

NOTE:  "FAIR" INDICATES FEW OR NO CLOUDS BELOW 12,000 FEET
WITH NO SIGNIFICANT WEATHER AND/OR OBSTRUCTIONS TO VISIBILITY.

WYZ001-180900-
YELLOWSTONE NATIONAL PARK

CITY           SKY/WX    TMP DP  RH WIND       PRES   REMARKS
LK YELLOWSTONE   N/A     14  11  87 CALM      30.07F
W YELLOWSTONE  NOT AVBL

$$
WYZ002>013-054>058-071-098>099-180900-
NORTHERN WYOMING

CITY           SKY/WX    TMP DP  RH WIND       PRES   REMARKS
JACKSON        FLURRIES  23  15  71 S16       30.11F WCI  10
CODY           FAIR      28  19  69 NW13G28   29.88F WCI  17
GREYBULL       FAIR      14  12  92 SE5       29.94F WCI   6
WORLAND        FAIR       8   6  92 S8        29.94F WCI  -4
SHERIDAN       FAIR      16  14  92 CALM      29.78F
BUFFALO        FAIR      26  12  55 SW12      29.80F WCI  16
GILLETTE       FAIR      31  19  61 S14       29.82F WCI  21
HULETT         FAIR      32  19  59 SW7       29.82F WCI  26
NEWCASTLE      FAIR      18  14  86 CALM      29.88F

$$
WYZ014>020-022>026-101>103-180900-
CENTRAL WYOMING

CITY           SKY/WX    TMP DP  RH WIND       PRES   REMARKS
BIG PINEY      FAIR      15  10  80 N5        30.10S WCI   8
PINEDALE       CLOUDY    19  14  79 NW12      30.11R WCI   7
DUBOIS         CLOUDY    23  14  68 NW25G35   29.96S WCI   7
LANDER         FAIR      18  13  80 NW9       29.92F WCI   7
RIVERTON       FAIR      18  13  80 SW7       29.93F WCI   9
CASPER         FAIR      27  17  66 SW17G23   29.94F WCI  14
DOUGLAS        FAIR      29  19  66 W10       29.89F WCI  20

$$
WYZ021-027>030-104>119-180900-
SOUTHERN WYOMING

CITY           SKY/WX    TMP DP  RH WIND       PRES   REMARKS
EVANSTON       FAIR      19  16  88 SW14      30.16F WCI   6
FORT BRIDGER   FAIR      21  14  73 W15       30.17S WCI   8
ROCK SPRINGS   FAIR      21  11  65 SW18      30.10F WCI   6
DIXON          CLOUDY    22  16  80 E9        30.18F WCI  11
RAWLINS        FAIR      22  13  68 SW12      30.08S WCI  10
LARAMIE        FAIR      26  13  57 SW23      29.97R WCI  11
CHEYENNE       FAIR      27  19  72 W6        29.94S WCI  20
TORRINGTON     FAIR      32  15  49 W10       29.92F WCI  24
PINE BLUFFS    FAIR      18  16  93 CALM      29.96S

$$




USA.gov is the U.S. government's official web portal to all federal, state and local government web resources and services.